Weather History for Newburgh, NY

Change the Weather History Date:

Thursday, October 4, 2012

  Actual Average Record
Temperature  
Mean Temperature 60 °F -  
Max Temperature 71 °F 63 °F 84 °F (2007)
Min Temperature 48 °F 42 °F 29 °F (1974)
Degree Days  
Heating Degree Days 6    
Growing Degree Days 10 (Base 50)    
Moisture  
Dew Point 66 °F    
Average Humidity 98    
Maximum Humidity 100    
Minimum Humidity 94    
Precipitation  
Precipitation 0.00 in - - ()
Sea Level Pressure  
Sea Level Pressure 30.11 in    
Wind  
Wind Speed 3 mph (SW)    
Max Wind Speed 12 mph    
Max Gust Speed 18 mph    
Visibility 5 miles    
Events Fog , Rain , Thunderstorm    
Averages and records for this station are not official NWS values.
T = Trace of Precipitation, MM = Missing Value Source: NWS Daily Summary

Daily Weather History Graph

Daily Weather History Graph

Search for Another Location

Airport:

Trip Planner

Search our weather history database for the weather conditions in past years. The results will help you decide how hot, cold, wet, or windy it might be!

Date:

Astronomy

Oct. 04, 2012 Rise Set
Actual Time 6:56 AM EDT 6:32 PM EDT
Civil Twilight 6:29 AM EDT 6:59 PM EDT
Nautical Twilight 5:57 AM EDT 7:32 PM EDT
Astronomical Twilight 5:24 AM EDT 8:04 PM EDT
Moon 9:02 PM EDT (10/4) 11:14 AM EDT (10/4)
Length of Visible Light 12h 30m
Length of Day
11h 35m
Waning Gibbous, 82% of the Moon is Illuminated
Oct 4
Waning Gibbous
Oct 8
Last Quarter
Oct 15
New
Oct 21
First Quarter
Oct 29
Full

Hourly Weather History & Observations

Time (EDT) Temp. Dew Point Humidity Pressure Visibility Wind Dir Wind Speed Gust Speed Precip Events Conditions
12:45 AM 68.0 °F 68.0 °F 100% 30.14 in 0.5 mi Calm Calm - N/A Fog Fog
1:45 AM 68.0 °F 68.0 °F 100% 30.15 in 1.2 mi Calm Calm - N/A   Overcast
3:45 AM 66.2 °F 66.2 °F 100% 30.14 in 2.0 mi SSW 4.6 mph - N/A   Overcast
4:50 AM 66.2 °F 66.2 °F 100% 30.13 in 2.5 mi SSW 4.6 mph - N/A   Overcast
5:55 AM 48.2 °F 48.2 °F 100% 30.14 in 2.5 mi SSW 3.5 mph - N/A   Overcast
6:45 AM 66.2 °F 66.2 °F 100% 30.15 in 2.5 mi WSW 5.8 mph - N/A   Overcast
7:45 AM 66.2 °F 66.2 °F 100% 30.16 in 2.0 mi Calm Calm - N/A   Overcast
8:45 AM 66.2 °F 66.2 °F 100% 30.14 in 2.0 mi Calm Calm - N/A   Mostly Cloudy
9:45 AM 68.0 °F 68.0 °F 100% 30.16 in 2.0 mi Variable 5.8 mph - N/A   Overcast
11:50 AM 68.0 °F 68.0 °F 100% 30.10 in 2.0 mi East 11.5 mph - N/A   Light Drizzle
12:55 PM 69.8 °F 68.0 °F 94% 30.11 in 4.0 mi ESE 6.9 mph - N/A   Overcast
1:45 PM 69.8 °F 68.0 °F 94% 30.10 in 4.0 mi ESE 5.8 mph - N/A   Overcast
2:45 PM 71.6 °F 69.8 °F 94% 30.09 in 4.0 mi West 3.5 mph - N/A   Overcast
3:45 PM 71.6 °F 69.8 °F 94% 30.08 in 5.0 mi NNW 3.5 mph - N/A   Overcast
4:45 PM 68.0 °F 66.2 °F 94% 30.07 in 5.0 mi SSW 11.5 mph - N/A Rain , Thunderstorm Light Thunderstorms and Rain
5:20 PM 68.0 °F 66.2 °F 94% 30.08 in 5.0 mi West 11.5 mph 18.4 mph N/A Rain Light Rain
6:45 PM 68.0 °F 66.2 °F 94% 30.07 in 10.0 mi Variable 5.8 mph - N/A   Mostly Cloudy
7:45 PM 64.4 °F 64.4 °F 100% 30.07 in 10.0 mi Calm Calm - N/A   Partly Cloudy
8:45 PM 62.6 °F 62.6 °F 100% 30.07 in 10.0 mi West 4.6 mph - N/A Fog Shallow Fog
9:45 PM 62.6 °F 62.6 °F 100% 30.09 in 10.0 mi Calm Calm - N/A Fog Shallow Fog
10:45 PM 60.8 °F 60.8 °F 100% 30.09 in 10.0 mi Calm Calm - N/A   Clear